SL-8 R/B

Last updated on Thu Oct 30 2025 00:02:15 GMT+0000 (Coordinated Universal Time)

1 21938U 92020B 25302.40798640 .00000066 00000+0 53086-4 0 9993 2 21938 82.9292 251.2366 0027943 306.3393 171.8055 13.75519473683081

Satellite not in orbit